Temp
14 11 12 14 14 15 16 16 17 18 19 20 20 21 22 23 23 22 24 24 25 25 27 28 28 27 27 28 27 27 27 26 26 26 25 22 20 19 18 18 17 16 16 16
12 11 14 15 15 15 15 15 15 17 19 19 20 20 22 23 23 23 24 24 24 26 28 27 27 27 27 28 27 27 27 27 26 25 24 21 19 18 18 17 16 16 16 15
11 12 15 14 14 15 15 15 15 16 18 19 19 19 19 21 21 23 24 25 26 27 27 27 27 28 28 27 27 26 26 26 25 24 22 20 18 18 17 17 16 16 16 15
11 13 13 14 14 15 14 16 17 17 16 16 19 17 19 20 21 21 22 24 26 27 27 27 28 27 27 27 25 25 25 24 22 22 21 19 19 18 18 17 17 16 16 15
12 13 13 13 14 16 14 17 17 17 16 16 17 15 20 19 20 21 21 24 26 27 27 27 28 27 25 25 25 24 22 22 20 19 19 18 18 17 17 17 16 16 16 15
13 14 14 14 15 15 16 16 16 16 14 14 17 16 17 19 20 20 20 24 26 26 27 27 27 26 23 23 23 21 20 19 18 18 17 17 17 16 17 16 16 16 15 15
12 13 14 15 14 14 14 13 12 11 12 14 17 16 18 18 20 21 22 23 25 25 26 26 25 23 21 21 20 20 18 17 17 16 16 16 16 16 16 16 16 15 15 15
10 10 13 15 13 13 12 11 10 11 11 14 18 16 16 20 22 24 24 24 24 25 23 22 20 20 20 19 18 17 17 16 16 16 16 16 16 16 16 15 15 15 15 14
9 11 12 14 14 13 12 12 14 13 15 14 15 17 18 21 21 22 22 21 22 20 19 19 19 19 18 18 17 16 16 16 16 16 16 16 15 15 15 15 15 14 14 13
9 8 11 13 13 13 12 14 13 11 12 12 15 16 17 20 21 21 20 18 18 17 18 18 18 18 18 16 16 16 15 15 16 16 15 15 15 15 15 14 14 14 14 13
8 8 9 11 12 11 11 12 13 12 12 14 13 15 17 18 20 21 18 18 17 18 18 18 18 17 16 16 16 15 15 15 15 15 15 15 14 14 14 14 14 13 13 13
7 6 6 9 11 13 11 11 10 10 12 14 14 16 21 20 20 20 18 18 18 18 18 18 17 16 16 15 15 15 15 15 15 15 15 15 15 15 14 14 13 13 13 13
7 5 5 7 9 11 10 11 10 10 12 14 15 15 21 19 21 19 19 18 17 17 17 17 16 16 15 15 15 15 15 15 15 15 15 15 15 15 14 14 13 13 13 13
6 5 5 4 8 9 8 9 10 9 9 14 15 17 20 20 21 20 18 18 17 17 17 17 16 16 16 16 15 15 15 15 15 15 16 16 15 15 14 13 13 13 13 13
5 5 6 6 7 8 9 9 10 10 10 9 14 15 18 20 20 19 18 18 17 17 16 17 17 16 16 16 15 15 15 15 15 16 16 16 15 14 13 13 13 13 13 13
5 4 6 6 8 9 9 10 10 11 11 11 11 12 16 17 19 19 19 19 18 17 17 17 17 17 16 16 16 16 16 16 16 17 16 16 15 14 13 13 13 13 13 13
4 5 6 6 7 10 8 10 11 12 12 13 12 15 17 17 15 14 19 19 18 18 18 18 18 17 17 17 17 16 16 16 16 16 16 16 14 13 13 13 13 13 13 14
7 5 6 5 6 7 10 10 10 13 15 14 14 15 16 17 16 18 18 20 19 19 19 18 18 18 18 17 17 17 17 17 17 17 16 15 14 14 14 13 13 13 13 13
7 6 6 6 5 9 11 8 8 9 12 12 13 16 15 16 17 15 19 19 20 21 20 20 19 19 18 18 18 18 17 17 17 17 16 15 14 14 14 14 14 14 13 13
8 7 6 7 7 7 8 7 8 9 11 12 11 13 14 15 13 14 17 19 20 20 20 20 20 19 19 18 18 18 17 17 17 17 16 15 15 14 14 14 14 13 13 13
5 7 6 6 5 7 5 5 6 10 11 9 11 12 14 14 14 17 18 19 20 21 21 21 20 20 19 19 18 18 18 17 17 17 17 15 15 15 14 14 13 14 14 13
6 6 7 7 7 8 5 6 10 8 8 8 9 12 14 15 16 17 17 19 20 21 21 21 20 20 19 19 18 18 18 17 17 17 17 16 15 15 15 14 14 13 14 13
6 5 5 5 5 3 4 6 6 7 6 7 8 12 14 13 14 15 17 18 19 19 20 21 21 20 19 19 19 18 18 18 18 17 17 16 16 15 15 15 14 14 13 13
6 4 3 4 6 6 5 6 6 7 6 7 10 13 14 13 14 13 15 17 19 19 19 21 21 20 19 19 19 18 18 18 18 17 17 16 16 16 15 14 14 14 13 13
6 5 5 5 6 6 6 7 6 8 9 8 13 14 14 14 13 13 14 15 16 17 19 19 20 20 20 19 19 18 18 18 18 18 17 17 16 16 15 15 15 14 14 15
6 6 5 6 6 7 7 8 7 8 8 10 13 13 13 13 13 14 13 13 14 15 17 18 19 20 20 19 19 18 18 18 18 18 17 17 16 16 16 15 15 14 14 15
Height
1455 1461 1450 1437 1454 1456 1452 1454 1452 1448 1448 1453 1442 1434 1432 1432 1431 1429 1426 1423 1419 1417 1417 1417 1416 1417 1420 1420 1422 1425 1425 1427 1428 1428 1429 1432 1434 1440 1445 1449 1453 1459 1461 1464
1455 1446 1444 1450 1453 1454 1456 1456 1452 1452 1445 1444 1442 1431 1424 1422 1421 1422 1418 1415 1412 1411 1409 1409 1410 1411 1413 1414 1415 1416 1418 1419 1420 1422 1424 1428 1432 1438 1443 1447 1451 1454 1458 1461
1451 1446 1449 1451 1452 1452 1449 1453 1455 1457 1448 1437 1445 1431 1431 1413 1411 1413 1411 1407 1405 1402 1400 1403 1404 1404 1403 1405 1408 1409 1412 1414 1414 1415 1421 1428 1435 1439 1443 1445 1447 1452 1455 1459
1444 1442 1445 1446 1447 1448 1450 1446 1447 1451 1456 1458 1443 1446 1422 1409 1403 1404 1402 1401 1396 1394 1394 1395 1395 1395 1396 1398 1401 1404 1406 1408 1412 1413 1418 1424 1429 1435 1440 1444 1448 1451 1454 1457
1439 1438 1442 1444 1441 1440 1440 1440 1442 1444 1449 1453 1446 1458 1382 1403 1401 1396 1392 1389 1388 1388 1388 1388 1387 1387 1388 1391 1394 1399 1402 1406 1411 1413 1418 1425 1431 1435 1440 1443 1447 1450 1453 1455
1432 1435 1435 1434 1434 1434 1435 1436 1438 1442 1450 1458 1434 1443 1401 1400 1393 1388 1381 1381 1382 1382 1382 1381 1379 1379 1382 1385 1390 1396 1401 1405 1410 1414 1420 1425 1430 1434 1438 1442 1445 1448 1451 1453
1431 1429 1426 1427 1432 1430 1434 1442 1459 1464 1461 1433 1420 1431 1396 1384 1379 1379 1378 1377 1375 1377 1376 1374 1372 1374 1379 1383 1388 1395 1400 1404 1409 1415 1421 1426 1430 1433 1437 1441 1444 1447 1449 1450
1434 1438 1423 1421 1427 1430 1432 1440 1452 1455 1454 1434 1418 1417 1399 1374 1373 1369 1371 1370 1372 1373 1371 1372 1374 1376 1380 1385 1390 1396 1400 1404 1411 1417 1422 1426 1430 1433 1437 1440 1443 1446 1447 1447
1436 1428 1422 1421 1423 1427 1428 1432 1426 1437 1424 1436 1416 1394 1378 1367 1363 1361 1364 1367 1368 1369 1370 1372 1376 1380 1383 1388 1392 1397 1402 1407 1413 1419 1423 1426 1430 1434 1437 1440 1442 1444 1445 1445
1436 1440 1424 1422 1423 1420 1423 1421 1433 1436 1443 1444 1416 1403 1392 1367 1362 1359 1359 1362 1366 1368 1371 1374 1378 1382 1386 1391 1395 1400 1405 1409 1415 1420 1424 1427 1430 1434 1437 1439 1440 1442 1442 1444
1438 1439 1431 1426 1423 1423 1425 1421 1420 1423 1425 1423 1427 1406 1365 1366 1358 1355 1353 1354 1360 1366 1370 1374 1379 1385 1389 1393 1397 1402 1407 1411 1416 1421 1425 1428 1430 1434 1436 1438 1439 1440 1442 1444
1441 1443 1442 1427 1418 1415 1420 1423 1427 1433 1425 1410 1410 1390 1356 1356 1354 1346 1347 1352 1359 1366 1370 1376 1382 1386 1391 1395 1400 1405 1409 1414 1418 1422 1425 1428 1431 1433 1435 1437 1438 1440 1442 1444
1441 1447 1446 1429 1414 1416 1421 1418 1421 1419 1415 1408 1408 1390 1347 1355 1348 1343 1345 1354 1360 1365 1372 1378 1384 1389 1394 1397 1402 1407 1412 1416 1420 1423 1425 1428 1431 1433 1435 1436 1438 1440 1442 1444
1441 1445 1444 1448 1422 1424 1422 1419 1418 1420 1424 1402 1392 1383 1357 1357 1353 1354 1349 1353 1359 1365 1372 1379 1384 1389 1395 1399 1403 1409 1414 1417 1420 1423 1425 1428 1430 1432 1434 1436 1438 1438 1443 1444
1444 1442 1436 1430 1424 1421 1416 1414 1414 1415 1413 1417 1391 1382 1367 1357 1355 1352 1350 1355 1361 1367 1373 1378 1383 1389 1395 1400 1405 1410 1414 1417 1420 1423 1425 1427 1429 1431 1433 1436 1438 1441 1443 1444
1437 1438 1429 1423 1412 1408 1408 1403 1404 1403 1405 1406 1400 1385 1369 1356 1346 1348 1351 1353 1361 1367 1373 1378 1383 1389 1395 1401 1405 1410 1413 1416 1420 1422 1425 1427 1429 1431 1433 1435 1438 1441 1443 1444
1431 1431 1425 1420 1410 1396 1406 1396 1393 1392 1391 1391 1393 1377 1365 1361 1360 1361 1353 1353 1359 1366 1372 1377 1382 1388 1395 1400 1405 1408 1412 1416 1419 1423 1425 1427 1429 1432 1434 1436 1439 1441 1443 1444
1421 1425 1422 1422 1413 1406 1392 1389 1385 1378 1375 1377 1375 1367 1365 1361 1360 1358 1358 1358 1360 1366 1372 1376 1382 1388 1394 1400 1404 1408 1412 1416 1419 1422 1424 1426 1429 1432 1434 1437 1439 1441 1443 1444
1413 1420 1421 1417 1413 1390 1380 1392 1394 1387 1380 1371 1365 1354 1358 1360 1357 1366 1362 1365 1361 1362 1368 1373 1379 1386 1393 1398 1403 1407 1411 1415 1419 1422 1424 1427 1429 1432 1435 1437 1439 1440 1442 1443
1405 1408 1417 1410 1404 1397 1390 1394 1394 1395 1383 1370 1372 1361 1359 1355 1372 1374 1370 1368 1365 1366 1368 1373 1379 1385 1392 1397 1402 1406 1410 1414 1418 1421 1424 1427 1429 1432 1435 1437 1439 1440 1441 1442
1408 1407 1406 1410 1415 1394 1396 1393 1390 1387 1386 1376 1368 1366 1362 1359 1365 1370 1369 1364 1365 1366 1368 1374 1379 1384 1391 1397 1401 1404 1409 1413 1417 1420 1424 1427 1430 1432 1435 1437 1438 1439 1440 1441
1410 1407 1398 1401 1399 1394 1391 1384 1377 1391 1383 1377 1374 1368 1366 1362 1367 1370 1367 1365 1363 1363 1367 1373 1378 1385 1391 1396 1400 1403 1407 1412 1416 1419 1423 1426 1429 1432 1434 1436 1438 1439 1440 1441
1411 1415 1409 1407 1406 1401 1394 1387 1388 1386 1388 1380 1379 1376 1369 1377 1375 1369 1366 1364 1365 1364 1367 1372 1377 1384 1391 1395 1399 1402 1406 1410 1414 1419 1422 1426 1429 1432 1435 1436 1437 1439 1441 1442
1418 1414 1415 1413 1406 1402 1394 1392 1394 1390 1393 1384 1382 1370 1366 1370 1371 1372 1368 1364 1366 1367 1370 1372 1378 1384 1390 1395 1399 1402 1405 1409 1413 1417 1421 1425 1429 1432 1435 1436 1438 1439 1440 1442
1420 1417 1413 1409 1402 1400 1399 1399 1397 1384 1380 1374 1366 1367 1370 1370 1373 1374 1368 1368 1370 1370 1371 1375 1379 1384 1388 1393 1398 1402 1405 1409 1412 1416 1420 1424 1428 1431 1433 1436 1439 1440 1442 1443
1417 1417 1418 1415 1409 1401 1400 1406 1395 1384 1382 1375 1377 1376 1374 1372 1375 1374 1374 1376 1373 1371 1371 1374 1378 1382 1387 1392 1396 1400 1404 1407 1411 1415 1418 1423 1427 1431 1434 1436 1439 1440 1443 1444
Wind_Speed
6 4 18 27 16 8 10 11 10 5 10 11 22 24 21 22 24 20 27 32 39 43 43 39 38 36 27 23 19 25 23 19 21 28 33 35 37 31 27 24 24 22 16 16
4 19 12 9 6 10 14 16 19 6 9 15 18 28 24 23 23 28 33 34 36 41 40 35 25 23 26 27 26 26 29 24 25 31 33 38 35 28 24 24 21 14 17 18
11 6 8 15 12 16 16 19 12 8 12 22 9 19 8 15 14 21 27 36 33 29 34 36 30 26 30 32 28 23 24 26 30 30 32 34 33 25 22 21 19 15 14 15
10 11 14 14 16 18 19 12 13 16 13 13 8 19 22 14 22 16 20 28 33 37 39 39 37 37 35 28 20 21 22 24 28 27 28 30 34 31 26 20 16 17 16 16
11 9 4 14 17 15 19 10 16 13 8 15 16 6 25 10 16 17 15 30 31 32 36 37 32 35 30 21 21 21 20 20 24 20 21 23 25 25 21 17 19 19 20 19
14 17 14 12 12 11 6 9 15 12 2 8 14 11 9 14 15 8 9 21 31 33 30 34 35 25 23 24 21 19 18 21 19 18 18 20 22 21 20 19 20 19 16 14
7 13 11 13 12 10 4 1 3 2 5 16 12 10 21 9 8 15 16 23 34 32 26 23 17 22 28 26 22 20 21 22 21 21 23 21 21 19 18 18 17 15 12 11
5 5 6 2 1 7 7 9 5 7 4 4 12 9 7 16 20 37 34 34 25 16 15 18 24 29 27 24 22 23 24 26 25 24 22 21 21 15 17 16 13 9 10 10
5 3 6 9 6 4 4 10 5 6 15 1 5 8 9 19 24 21 20 12 16 20 23 27 27 26 24 23 24 26 26 28 26 25 23 21 16 16 14 12 9 7 8 9
4 4 4 6 7 4 7 5 5 3 7 6 5 6 8 7 11 12 12 11 21 25 27 28 27 24 22 22 24 26 27 28 26 23 21 16 12 11 10 8 8 7 7 8
3 2 4 4 4 6 3 1 3 3 4 8 3 6 11 11 13 18 8 21 32 32 32 30 26 23 22 24 27 28 28 26 23 19 15 14 12 7 5 3 6 7 9 8
2 1 3 8 11 12 4 6 5 3 6 5 2 12 17 8 12 12 14 25 30 34 33 29 27 26 27 28 26 26 27 24 21 18 16 14 9 6 4 3 5 11 11 11
3 2 4 9 2 0 4 3 2 4 5 16 8 7 12 3 12 6 18 25 30 35 33 32 31 29 29 27 25 27 25 22 20 18 16 11 7 6 4 6 7 8 9 10
3 3 5 5 5 7 6 9 6 1 3 11 16 15 25 16 13 3 18 28 32 36 38 35 32 31 28 26 26 25 23 21 20 17 14 9 8 8 5 10 7 14 15 9
3 5 6 12 16 16 14 15 10 9 8 4 6 14 17 14 11 14 26 30 31 32 35 36 34 33 30 28 26 23 21 21 22 16 13 8 5 5 10 13 12 13 10 7
8 4 4 16 18 18 18 14 14 13 13 11 18 21 18 14 3 14 27 32 29 31 33 36 35 33 31 28 27 24 22 21 20 16 12 6 6 10 12 11 14 12 11 7
8 4 2 7 14 8 6 13 11 5 8 4 7 6 14 6 8 5 21 30 31 32 34 37 36 34 32 28 27 26 24 19 18 18 10 7 8 10 13 13 11 12 9 9
6 4 3 5 9 5 3 11 9 13 11 9 12 18 13 3 10 10 4 25 32 35 35 37 35 34 31 28 27 24 24 19 17 16 11 11 9 13 14 12 12 11 10 10
11 4 2 3 3 4 3 8 7 6 5 4 11 9 9 9 16 10 12 14 35 40 37 36 35 34 31 31 28 25 26 22 19 16 15 12 12 16 15 12 13 11 12 13
2 9 7 2 4 3 2 12 16 9 3 6 13 7 3 9 4 2 11 6 22 27 36 37 36 35 33 33 31 26 28 22 21 18 15 13 14 16 14 10 9 9 11 12
2 2 10 8 3 4 6 17 32 6 1 22 20 18 6 7 4 3 3 9 12 18 33 36 38 37 35 34 31 26 26 22 21 20 12 16 15 13 12 10 9 8 10 11
3 3 2 2 2 2 15 18 5 6 14 21 25 17 13 18 6 7 9 9 7 10 30 37 39 38 35 34 30 26 23 24 22 22 17 18 16 13 11 9 10 10 8 8
2 3 3 4 2 7 20 15 24 23 20 20 25 9 28 22 20 24 27 21 12 10 30 39 39 37 36 33 29 28 23 25 22 25 21 20 18 15 11 9 14 12 9 8
2 5 1 3 3 7 23 26 24 23 23 24 19 27 36 29 28 27 33 28 20 17 29 38 37 37 37 34 29 27 25 25 21 28 24 23 18 13 8 10 10 9 9 9
2 3 5 4 7 6 15 21 23 23 25 37 24 35 33 34 32 32 37 36 30 20 15 24 35 35 34 33 29 27 26 26 22 29 25 24 20 16 10 11 12 10 7 5
5 2 2 2 9 6 10 10 20 22 27 38 21 28 30 31 30 30 36 31 32 31 20 17 32 34 31 34 30 29 29 29 23 30 27 25 22 19 12 12 14 11 9 6
Wind_Direction
225 193 220 217 225 275 269 262 253 244 199 218 241 262 258 251 253 258 264 269 264 265 269 271 277 263 256 250 248 242 254 248 249 248 237 225 221 215 209 210 208 197 212 221
222 232 247 274 269 229 245 265 264 301 276 216 243 251 263 265 262 258 261 263 261 264 279 279 271 259 247 253 254 252 250 249 244 240 227 217 207 203 200 192 209 216 206 210
216 227 246 246 252 248 242 234 261 265 296 292 300 281 247 261 257 258 266 272 268 273 280 280 271 254 248 247 259 246 246 251 236 223 216 208 205 200 195 207 220 228 213 226
254 245 248 261 234 234 249 251 241 248 261 266 217 280 259 262 267 262 247 257 271 275 275 276 272 262 257 252 234 239 243 231 219 212 208 202 200 204 212 219 231 203 221 236
226 281 263 228 242 234 250 255 231 252 238 248 248 273 267 208 250 252 253 256 259 277 282 281 279 275 266 230 227 220 212 209 203 197 195 193 197 202 200 203 205 213 230 237
232 225 247 250 260 259 290 231 242 260 224 254 228 220 275 237 240 245 241 270 274 271 276 285 279 269 212 193 196 197 194 185 181 177 178 187 185 184 193 194 195 209 221 237
280 246 228 236 255 264 241 143 233 230 197 234 183 218 240 270 249 242 249 251 262 271 274 262 227 187 176 176 178 179 180 166 163 165 171 177 177 177 187 197 199 204 222 252
213 258 192 20 40 227 187 171 183 193 200 278 240 241 240 236 257 257 255 260 268 248 215 191 174 168 168 164 164 167 168 156 159 167 169 175 184 186 178 185 197 223 255 258
7 228 341 324 318 111 318 216 194 276 277 301 233 268 275 258 266 262 252 208 207 181 174 169 165 163 157 159 160 164 165 159 160 166 172 173 168 173 182 189 202 232 249 240
332 304 256 309 348 246 191 258 163 215 217 240 255 252 236 252 284 277 251 174 168 161 159 158 159 156 156 158 157 161 164 160 162 165 171 169 174 172 184 197 221 237 212 165
348 208 285 338 227 229 351 226 198 172 195 219 299 255 244 250 267 279 198 167 158 160 160 158 155 155 153 154 153 157 162 162 163 166 165 154 144 166 186 189 200 187 174 152
314 266 275 250 248 262 244 253 172 205 250 249 210 265 260 271 282 269 163 157 157 161 160 157 155 152 152 152 153 159 163 162 160 156 148 144 156 202 195 185 181 178 161 153
337 312 308 310 268 209 223 111 6 270 231 245 216 257 263 340 328 326 147 151 151 154 156 155 154 155 156 152 153 157 160 156 155 148 163 154 178 214 207 184 170 185 179 156
338 217 226 242 305 332 282 290 305 352 269 245 237 264 259 280 305 113 142 147 147 151 155 157 157 159 160 157 156 159 162 161 157 155 161 172 200 220 209 172 155 161 159 168
181 235 251 270 269 270 252 263 269 254 256 258 287 271 290 274 270 185 158 145 144 148 154 160 162 163 165 164 164 163 162 165 162 164 163 177 207 198 172 164 158 150 167 175
185 243 259 290 275 247 239 231 237 241 263 260 264 278 269 340 210 147 159 149 149 154 158 164 166 165 167 168 170 167 168 167 176 180 167 181 187 150 158 169 168 171 178 185
179 211 261 274 315 188 227 236 237 197 190 198 253 254 309 38 359 345 156 152 155 159 165 167 171 171 171 168 168 170 171 167 181 174 172 178 154 170 161 156 164 172 187 188
213 182 216 280 271 210 96 31 0 187 216 212 268 251 259 217 129 93 160 161 158 166 171 173 174 176 175 174 168 165 168 169 173 172 179 169 179 164 157 169 175 184 188 200
201 169 263 257 244 289 92 27 1 18 257 292 323 151 118 63 82 37 86 176 173 176 179 178 179 178 177 176 169 171 176 171 172 181 183 174 171 162 160 173 184 202 206 213
139 189 200 270 287 242 85 310 320 311 252 308 337 358 325 108 98 250 178 131 179 182 181 182 182 180 178 179 174 171 175 174 177 179 176 165 163 158 164 179 193 212 214 219
107 89 221 226 246 277 16 309 295 207 333 318 329 335 330 76 120 112 115 122 107 179 190 188 184 180 180 179 175 171 173 176 182 180 176 161 161 167 178 183 198 211 191 198
1 281 236 220 243 285 313 291 84 328 333 338 329 333 84 44 53 84 85 92 74 152 185 188 183 181 178 180 177 172 175 171 189 182 175 165 164 173 189 204 202 190 182 179
352 357 313 1 40 277 279 16 10 8 354 320 323 330 104 78 63 60 67 85 92 93 174 183 184 180 180 182 181 175 174 177 190 190 179 173 176 190 199 204 178 182 183 189
340 28 332 236 30 26 14 5 4 4 344 324 308 69 74 70 61 51 56 71 82 86 173 182 182 182 182 185 186 178 172 182 191 185 183 183 181 180 182 187 181 181 179 184
272 326 326 316 352 352 12 11 354 8 3 353 37 57 58 59 55 52 52 56 59 70 138 188 187 186 188 188 187 179 175 185 191 186 188 190 186 180 174 179 178 182 166 153
334 334 34 351 291 341 322 331 22 17 342 350 45 53 53 52 48 48 46 52 51 53 70 167 196 194 193 192 188 184 183 189 194 190 192 194 189 183 185 176 178 187 203 190